Regional Weather Roundup
Issued by NWS

Home | Current Version | Previous Version | Text Only | Print | Product List | Glossary On
Versions: 1 2 3 4 5 6 7 8 9 10 11 12 13 14 15 16 17 18 19 20 21 22 23 24 25 26 27 28 29 30 31 32 33 34 35 36 37 38 39 40 41 42 43 44 45 46 47 48 49 50
000
ASUS44 KBMX 221410
RWRAL

ALABAMA REGIONAL WEATHER ROUNDUP
NATIONAL WEATHER SERVICE BIRMINGHAM AL
900 AM CDT TUE AUG 22 2017

NOTE: "FAIR" INDICATES FEW OR NO CLOUDS BELOW 12,000 FEET
WITH NO SIGNIFICANT WEATHER AND/OR OBSTRUCTIONS TO VISIBILITY.

THE REMARK "TC" DENOTES TEMPERATURE IN DEGREES CELSIUS.

ALZ001>011-014-016>018-020-221500-
NORTH ALABAMA

CITY           SKY/WX    TMP DP  RH WIND       PRES   REMARKS
MUSCLE SHOALS  SUNNY     82  74  76 SW5       30.10S
HUNTSVILLE     SUNNY     82  76  81 VRB3      30.10S
DECATUR        SUNNY     82  76  81 S5        30.11R
HALEYVILLE     FAIR      81  75  82 W3        30.14R
GADSDEN        MOSUNNY   79  75  87 SW3       30.13S
$$

ALZ012-013-022-023-030>036-040>044-221500-
WEST CENTRAL ALABAMA

CITY           SKY/WX    TMP DP  RH WIND       PRES   REMARKS
TUSCALOOSA     SUNNY     80  77  90 VRB3      30.11R
DEMOPOLIS        N/A     79  71  77 SE3       30.11R
$$

ALZ015-024>026-033>036-041>044-221500-
CENTRAL ALABAMA

CITY           SKY/WX    TMP DP  RH WIND       PRES   REMARKS
BIRMINGHAM     SUNNY     83  74  74 CALM      30.14S
MONTGOMERY     SUNNY     84  71  65 E3        30.13R
SHELBY CO ARPT SUNNY     82  76  81 CALM      30.13R
MAXWELL AFB    SUNNY     82  75  78 CALM      30.12R
GREENVILLE     FAIR      82  72  71 CALM      30.13R
SELMA          FAIR      81  72  74 CALM      30.12S
PRATTVILLE     FAIR      78  75  90 CALM      30.12R
BESSEMER       FAIR      81  74  79 CALM      30.14R
TALLADEGA      FAIR     N/A N/A N/A MISG      30.14S
PELL CITY      SUNNY     81  77  89 CALM      30.13S
MARION         FAIR      80  74  81 CALM      30.12R
SYLACAUGA      FAIR      82  78  88 CALM      30.13S HX  90
$$

ALZ019-021-028-029-037-038-045>048-221500-
EAST CENTRAL ALABAMA

CITY           SKY/WX    TMP DP  RH WIND       PRES   REMARKS
ANNISTON       SUNNY     80  74  81 CALM      30.13S
ALEXANDER CITY SUNNY     80  73  80 CALM      30.15R
AUBURN         SUNNY     81  75  82 SW3       30.16R
$$

ALZ051>064-221500-
SOUTHWEST ALABAMA

CITY           SKY/WX    TMP DP  RH WIND       PRES   REMARKS
MOBILE         MOSUNNY   84  77  79 E3        30.11R HX  94
BROOKLEY FIELD MOSUNNY   83  79  88 NE6       30.11R HX  94
EVERGREEN      SUNNY     81  75  82 CALM      30.13R
$$

ALZ049-050-065>069-221500-
SOUTHEAST ALABAMA

CITY           SKY/WX    TMP DP  RH WIND       PRES   REMARKS
DOTHAN         SUNNY     82  78  88 CALM      30.16R HX  91
OZARK          SUNNY     82  75  79 CALM      30.12R
TROY           SUNNY     79  73  82 CALM      30.14R
EUFAULA        FAIR      85  77  77 CALM      30.12R HX  95
$$



USA.gov is the U.S. government's official web portal to all federal, state and local government web resources and services.